Voltar ao catálogo

USA 316

AtivoNavegaçãoVLEO
NORAD 48846·PAYLOAD·🇺🇸 United States

Lançado Jun 15, 2021 de Wallops Flight Facility

Loading…

Próximas Passagens (próximas 24 horas)

TLE

ObsoletoSource: Mike McCants

Época: Aug 7, 2026, 23:18 UTC

1 48846U 21052A   26219.97105931 0.00003993  00000-0  23593-3 0    07
2 48846  54.9810 218.9230 0011533  32.4949 327.6582 15.10987501    08

Acompanhe USA 316 em tempo real com AllMySat

Download on the App Store